Regional Weather Roundup
Issued by NWS

Home | Current Version | Previous Version | Graphics & Text | Print | Product List | Glossary On
Versions: 1 2 3 4 5 6 7 8 9 10 11 12 13 14 15 16 17 18 19 20 21 22 23 24 25 26 27 28 29 30 31 32 33 34 35 36 37 38 39 40 41 42 43 44 45 46 47 48 49 50
000
ASUS45 KCYS 050310
RWRWY

WYOMING REGIONAL WEATHER ROUNDUP
NATIONAL WEATHER SERVICE CHEYENNE WY
900 PM MDT FRI SEP 04 2015

NOTE:  "FAIR" INDICATES FEW OR NO CLOUDS BELOW 12,000 FEET
WITH NO SIGNIFICANT WEATHER AND/OR OBSTRUCTIONS TO VISIBILITY.

WYZ001-050400-
YELLOWSTONE NATIONAL PARK

CITY           SKY/WX    TMP DP  RH WIND       PRES   REMARKS
LK YELLOWSTONE   N/A     52  39  61 VRB5      30.06R
W YELLOWSTONE  NOT AVBL

$$
WYZ002>013-054>058-071-098>099-050400-
NORTHERN WYOMING

CITY           SKY/WX    TMP DP  RH WIND       PRES   REMARKS
JACKSON        FAIR      66  30  26 SW8       29.88R
CODY           FAIR      57  45  62 N16G22    29.94R
GREYBULL       FAIR      68  45  43 NW18G26   29.82R
WORLAND        FAIR      66  47  50 N13       29.84R
SHERIDAN       MOCLDY    67  48  50 W12       29.92R
BUFFALO        FAIR      66  47  50 N9        29.96R
GILLETTE       FAIR      65  55  70 VRB3      29.89R
HULETT         MOCLDY    72  54  53 S16G24    29.95R
NEWCASTLE      MOCLDY    70  50  49 NW12G17   29.90R

$$
WYZ014>020-022>026-101>103-050400-
CENTRAL WYOMING

CITY           SKY/WX    TMP DP  RH WIND       PRES   REMARKS
BIG PINEY      MOCLDY    63  37  38 SW18G25   30.00R
PINEDALE       FAIR      63  32  31 S8        30.00R
DUBOIS         FAIR      61  21  21 SW5       29.93R
LANDER         FAIR      69  37  30 SW8       29.85R
RIVERTON       FAIR      72  41  32 S3        29.87R
CASPER         FAIR      58  51  78 SW9       29.94R
DOUGLAS        FAIR      66  48  52 NW7       29.94S

$$
WYZ021-027>030-104>119-050400-
SOUTHERN WYOMING

CITY           SKY/WX    TMP DP  RH WIND       PRES   REMARKS
EVANSTON       FAIR      63  32  31 E8        29.95R
KEMMERER       FAIR      59  34  38 SE8       29.98R
FORT BRIDGER   CLEAR     63  37  39 S18G24    30.00R
ROCK SPRINGS   MOCLDY    59  44  57 CALM      30.02F
DIXON          FAIR      60  49  66 E9        30.07R
RAWLINS        FAIR      57  48  72 E7        30.06R
SARATOGA       FAIR      59  45  58 S7        30.09R
LARAMIE        MOCLDY    59  47  64 SE6       30.10S
CHEYENNE       FAIR      65  49  56 W5        30.03R
TORRINGTON     MOCLDY    76  46  34 S20       29.92R
PINE BLUFFS    FAIR      68  43  40 CALM      29.97R

$$



USA.gov is the U.S. government's official web portal to all federal, state and local government web resources and services.